www.pogodaiklimat.ru

Погода и климат >> Архив погоды >> Италия >> Катандзаро


ПОГОДА в Катандзаро

  • Прогноз погоды в Катандзаро
  • Монитор погоды в Катандзаро

АРХИВ ПОГОДЫ в Катандзаро

Время (UTC), дата Ветер
(напр.,м/с)
 
Видим.   Явления Облачность Т
(С)
Тd
(С)
f
(%)
Тe
(С)
Тes
(С)
Комфортность P
(гПа)
Po
(гПа)
Тmin
(С)
Tmax
(С)
R
(мм)
R24
(мм)
S
(см)
10 15.01 Ю 3 н/о н/о +9.0 -1.5 48 +7 +7 1013.8 973.7
11 15.01 С 3 н/о н/о +9.4 -7.9 29 +8 +8 1014.0 973.9
12 15.01 СЗ 2 н/о н/о +9.5 -8.7 27 +9 +9 1014.3 974.2
14 15.01 СЗ 3 н/о н/о +9.4 -8.3 28 +8 +8 1015.7 975.6
13 15.01 З 3 н/о н/о +9.5 -9.7 25 +8 +8 1014.9 974.8
15 15.01 СЗ 3 н/о н/о +8.5 -10.6 25 +7 +7 1017.3 977.0
16 15.01 С 4 н/о н/о +7.5 -11.9 24 +5 +5 1018.1 977.6
17 15.01 С 1 н/о н/о +6.5 -10.9 28 +8 +8 1019.4 978.7
18 15.01 С 7 н/о н/о +5.8 -12.8 25 +2 +2 1020.4 979.6 +9.8
20 15.01 СЗ 4 н/о н/о +5.4 -10.9 30 +3 +3 1021.4 980.5
19 15.01 СЗ 5 н/о н/о +5.8 -11.9 27 +2 +2 1021.0 980.1
21 15.01 С 1 н/о н/о +4.8 -9.9 34 +4 +4 1022.4 981.3
22 15.01 С 1 н/о н/о +4.0 -9.5 37 +3 +3 1023.4 982.2
23 15.01 СЗ 1 н/о н/о +4.1 -9.8 36 +5 +5 1023.7 982.5
00 16.01 штиль 0 н/о н/о +3.4 -9.7 38 +3 +3 1024.1 982.7
02 16.01 С 2 н/о н/о +3.6 -9.9 37 +2 +2 1024.9 983.6
01 16.01 С 2 н/о н/о +3.5 -9.3 39 +2 +2 1024.5 983.2
03 16.01 СЗ 1 н/о н/о +3.9 -10.0 35 +3 +3 1024.6 983.3
04 16.01 СЗ 4 н/о н/о +3.9 -9.3 37 +1 +1 1024.7 983.4
05 16.01 СЗ 3 н/о н/о +3.2 -9.6 38 0 0 1024.9 983.5
06 16.01 СЗ 3 н/о н/о +4.0 -9.2 38 +1 +1 1024.9 983.6 +3.1 6
08 16.01 СЗ 5 н/о н/о +5.2 -6.8 42 +2 +2 1025.3 984.2
07 16.01 СЗ 5 н/о н/о +4.0 -9.2 38 0 0 1025.1 983.8
09 16.01 З 4 н/о н/о +6.4 -5.7 42 +3 +3 1025.6 984.7
10 16.01 З 6 н/о н/о +7.4 -4.5 43 +4 +4 1025.8 985.0
11 16.01 З 5 н/о н/о +8.0 -3.3 45 +5 +5 1024.9 984.2
12 16.01 Ю 4 н/о н/о +8.9 -1.6 48 +6 +6 1023.9 983.4
14 16.01 З 6 н/о н/о +8.9 -1.6 48 +6 +6 1023.2 982.7
13 16.01 З 4 н/о н/о +9.2 -1.4 47 +7 +7 1023.1 982.7
15 16.01 З 5 н/о н/о +8.5 -1.7 49 +6 +6 1023.3 982.7
16 16.01 СЗ 5 н/о н/о +7.4 -1.7 52 +4 +4 1023.2 982.5
17 16.01 СЗ 5 н/о н/о +6.8 -1.7 55 +3 +3 1023.4 982.6
18 16.01 СЗ 5 н/о н/о +6.8 -2.2 53 +3 +3 1023.5 982.7 +9.5
20 16.01 З 4 н/о н/о +6.5 -1.7 56 +4 +4 1024.2 983.3
19 16.01 З 4 н/о н/о +6.6 -1.9 55 +3 +3 1023.7 982.9
21 16.01 СЗ 7 н/о н/о +6.4 -1.1 59 +2 +2 1024.1 983.2
22 16.01 СЗ 4 н/о н/о +6.3 -1.7 57 +3 +3 1024.2 983.3
23 16.01 СЗ 5 н/о н/о +6.3 -1.2 59 +3 +3 1023.9 983.0
00 17.01 СЗ 6 н/о н/о +6.3 -0.5 62 +2 +2 1023.4 982.5
02 17.01 СЗ 5 н/о н/о +6.1 -1.9 56 +2 +2 1023.1 982.2
01 17.01 СЗ 6 н/о н/о +6.2 -1.1 59 +2 +2 1023.2 982.3
03 17.01 СЗ 4 н/о н/о +6.0 -0.2 64 +3 +3 1022.4 981.5
04 17.01 СЗ 4 н/о н/о +5.9 +0.2 67 +3 +3 1022.0 981.1
05 17.01 СЗ 4 н/о н/о +6.2 +0.7 68 +3 +3 1021.7 980.9
06 17.01 СЗ 5 н/о н/о +6.1 +0.6 68 +2 +2 1021.8 981.0 +5.7 108
08 17.01 З 3 н/о н/о +7.2 +1.0 65 +5 +5 1021.6 980.9
07 17.01 З 3 н/о н/о +6.4 -7.0 38 +4 +4 1021.4 980.6
09 17.01 З 3 н/о н/о +8.4 -0.2 55 +7 +7 1022.0 981.5
10 17.01 З 7 н/о н/о +10.2 -2.9 40 +7 +7 1021.6 981.3
11 17.01 З 2 н/о н/о +10.9 -2.3 40 +11 +11 1020.7 980.6
12 17.01 З 4 н/о н/о +11.8 -1.5 40 +10 +10 1019.6 979.7
14 17.01 З 6 н/о н/о +12.1 -1.2 40 +10 +10 1018.9 979.0
13 17.01 ЮЗ 2 н/о н/о +12.6 -0.8 40 +13 +13 1018.9 979.1
15 17.01 З 3 н/о н/о +11.2 -1.0 43 +10 +10 1018.9 978.9
16 17.01 З 2 н/о н/о +10.1 -0.5 48 +10 +10 1018.8 978.6
17 17.01 СЗ 3 н/о н/о +9.7 -0.1 50 +8 +8 1019.2 978.9
18 17.01 СЗ 3 н/о н/о +9.5 -0.5 50 +8 +8 1019.3 979.0 +13.0
20 17.01 З 1 н/о н/о +10.8 +1.5 53 +11 +11 1019.1 979.0
19 17.01 СЗ 2 н/о н/о +10.5 +1.0 52 +10 +10 1019.1 979.0
21 17.01 ЮЗ 1 н/о н/о +10.6 +1.3 53 +12 +12 1019.0 978.9
22 17.01 СЗ 1 н/о н/о +10.1 +0.9 53 +11 +11 1018.8 978.7
23 17.01 Ю 1 н/о н/о +10.0 +1.0 54 +10 +10 1018.6 978.4
00 18.01 СЗ 3 н/о н/о +9.8 +1.6 57 +8 +8 1018.0 977.8
02 18.01 З 2 н/о н/о +9.7 +2.5 61 +9 +9 1017.4 977.2
01 18.01 СЗ 1 н/о н/о +9.7 +2.2 60 +9 +9 1017.7 977.5
03 18.01 СЗ 3 н/о н/о +9.8 +1.6 57 +8 +8 1018.0 977.8
04 18.01 СЗ 1 н/о н/о +9.3 +3.2 66 +9 +9 1016.5 976.3
05 18.01 З 1 н/о н/о +8.4 +2.8 68 +8 +8 1016.5 976.2
06 18.01 З 3 н/о н/о +9.1 +3.2 67 +7 +7 1016.6 976.4 +8.4
08 18.01 СЗ 2 н/о н/о +9.6 +3.9 68 +8 +8 1017.0 976.8
07 18.01 СЗ 3 н/о н/о +9.0 +3.3 67 +7 +7 1016.7 976.5
09 18.01 З 2 н/о н/о +10.7 +3.9 63 +10 +10 1017.1 977.1
10 18.01 З 2 н/о н/о +11.9 +4.1 59 +11 +11 1017.2 977.3
11 18.01 З 3 н/о н/о +12.4 +3.0 53 +11 +11 1016.5 976.7
12 18.01 СЗ 4 н/о н/о +12.5 +2.0 49 +11 +11 1015.5 975.8
14 18.01 З 2 н/о н/о +12.5 +2.0 49 +12 +12 1015.2 975.5
13 18.01 З 2 н/о н/о +12.6 +2.4 50 +12 +12 1015.2 975.5
15 18.01 З 4 н/о н/о +12.2 +2.8 53 +10 +10 1015.2 975.5
16 18.01 З 3 н/о н/о +11.4 +3.1 57 +10 +10 1015.5 975.6
17 18.01 СЗ 4 н/о н/о +10.1 +4.8 70 +8 +8 1015.7 975.7
18 18.01 СЗ 3 н/о н/о +9.8 +4.1 68 +8 +8 1016.1 976.0 +13.3
20 18.01 СЗ 3 н/о н/о +9.2 +1.5 59 +7 +7 1016.2 976.0
19 18.01 З 2 н/о н/о +9.3 +2.5 62 +8 +8 1016.2 976.0
21 18.01 СЗ 2 н/о н/о +9.9 +0.9 53 +9 +9 1016.0 975.9
22 18.01 СЗ 2 н/о н/о +9.8 +0.6 53 +9 +9 1016.2 976.1
23 18.01 СЗ 2 н/о н/о +9.8 0.0 50 +9 +9 1016.2 976.1
00 19.01 СЗ 1 н/о н/о +10.0 +0.2 51 +10 +10 1015.6 975.6
02 19.01 С 1 н/о н/о +9.0 +1.3 58 +10 +10 1015.6 975.4
01 19.01 штиль 0 н/о н/о +9.4 +0.2 53 +9 +9 1015.7 975.6
03 19.01 С 1 н/о н/о +9.2 +2.0 61 +10 +10 1015.2 975.0
04 19.01 штиль 0 н/о н/о +8.5 +1.3 61 +8 +8 1014.6 974.4
05 19.01 штиль 0 н/о н/о +8.3 +1.6 63 +8 +8 1014.6 974.3
06 19.01 Ю 2 н/о н/о +8.4 +1.7 63 +7 +7 1014.5 974.3 +8.0 301
08 19.01 штиль 0 н/о н/о +9.6 +2.1 59 +9 +9 1014.6 974.6
07 19.01 С 1 н/о н/о +9.1 +1.7 60 +10 +10 1014.6 974.5
09 19.01 штиль 0 н/о н/о +11.2 +2.9 57 +11 +11 1014.9 975.1
10 19.01 Ю 2 н/о н/о +11.3 +2.2 53 +11 +11 1015.2 975.3
11 19.01 Ю 2 н/о н/о +12.2 +2.8 53 +12 +12 1014.4 974.7
12 19.01 Ю 4 н/о н/о +12.0 +3.7 57 +10 +10 1013.6 973.9
14 19.01 З 3 н/о н/о +11.8 +4.0 59 +11 +11 1012.8 973.1
13 19.01 ЮЗ 5 н/о н/о +12.6 +3.2 53 +11 +11 1013.0 973.4
15 19.01 З 2 н/о н/о +11.3 +5.1 66 +10 +10 1012.9 973.1
16 19.01 З 4 н/о н/о +10.5 +5.4 71 +8 +8 1013.0 973.1
17 19.01 СЗ 3 н/о н/о +9.6 +5.7 77 +7 +7 1013.6 973.6
18 19.01 СЗ 5 н/о н/о +9.5 +3.4 66 +7 +7 1013.7 973.7 +13.2
20 19.01 СЗ 1 н/о н/о +9.2 +1.0 56 +10 +10 1014.2 974.1
19 19.01 СЗ 3 н/о н/о +9.6 +1.7 58 +8 +8 1013.8 973.8
21 19.01 СЗ 4 н/о н/о +8.9 +1.9 61 +6 +6 1014.4 974.2
22 19.01 СЗ 3 н/о н/о +8.2 +0.8 60 +6 +6 1014.6 974.4
23 19.01 СЗ 2 н/о н/о +8.4 +1.0 60 +7 +7 1014.6 974.4
00 20.01 СЗ 4 н/о н/о +8.5 +2.4 65 +6 +6 1014.2 974.0
02 20.01 СЗ 2 н/о н/о +8.6 +1.0 59 +8 +8 1014.3 974.1
01 20.01 СЗ 3 н/о н/о +8.8 +1.1 58 +7 +7 1014.2 974.1
03 20.01 С 2 н/о н/о +8.9 +0.3 55 +8 +8 1013.8 973.7
04 20.01 С 2 н/о н/о +8.0 -0.3 56 +7 +7 1013.9 973.6
05 20.01 СВ 1 н/о н/о +7.9 +0.3 59 +7 +7 1014.1 973.8
06 20.01 С 2 н/о н/о +7.9 +1.0 62 +7 +7 1014.3 974.0 +7.7 603
08 20.01 В 2 н/о н/о +10.2 +2.0 57 +9 +9 1014.6 974.6
07 20.01 С 1 н/о н/о +8.0 +0.6 60 +8 +8 1014.6 974.3
09 20.01 СЗ 4 н/о н/о +10.4 +2.2 57 +8 +8 1015.1 975.1
10 20.01 В 1 н/о н/о +10.5 +4.1 65 +10 +10 1015.3 975.3
11 20.01 ЮВ 2 н/о н/о +11.7 +4.1 60 +11 +11 1014.7 974.9
12 20.01 ЮВ 2 н/о н/о +11.9 +4.1 59 +11 +11 1013.7 974.0
14 20.01 ЮВ 3 н/о н/о +11.9 +4.5 60 +11 +11 1013.1 973.4
13 20.01 Ю 2 н/о н/о +12.2 +4.6 60 +12 +12 1013.2 973.5
15 20.01 ЮВ 2 н/о н/о +11.2 +5.4 67 +10 +10 1013.3 973.5
16 20.01 ЮВ 2 н/о н/о +10.2 +6.5 78 +9 +9 1013.7 973.7
17 20.01 штиль 0 н/о н/о +9.8 +6.7 81 +9 +9 1013.8 973.8
18 20.01 В 1 н/о н/о +9.4 +6.4 82 +9 +9 1014.3 974.2 +12.6
20 20.01 СЗ 1 н/о н/о +8.8 +4.2 73 +8 +8 1014.6 974.5
19 20.01 С 1 н/о н/о +9.4 +6.4 82 +10 +10 1014.6 974.5
21 20.01 СВ 2 н/о н/о +7.9 +3.5 74 +6 +6 1014.9 974.6
22 20.01 С 2 н/о н/о +7.9 +2.5 69 +7 +7 1015.1 974.8
23 20.01 С 2 н/о н/о +8.3 +2.9 69 +7 +7 1015.3 975.0
00 21.01 С 1 н/о н/о +8.0 +3.2 72 +7 +7 1014.9 974.6
02 21.01 С 2 н/о н/о +8.2 +3.8 74 +7 +7 1014.8 974.6
01 21.01 С 2 н/о н/о +8.2 +3.8 74 +7 +7 1015.0 974.7
03 21.01 С 1 н/о н/о +7.7 +3.1 73 +7 +7 1014.5 974.2
04 21.01 С 1 н/о н/о +8.0 +3.2 72 +8 +8 1014.2 973.9
05 21.01 С 1 н/о н/о +8.0 +3.0 71 +7 +7 1014.1 973.8
06 21.01 штиль 0 н/о н/о +7.7 +2.9 72 +7 +7 1014.6 974.3 +7.6 401
08 21.01 штиль 0 н/о н/о +8.5 +4.3 75 +8 +8 1014.8 974.6
07 21.01 С 2 н/о н/о +7.6 +3.6 76 +6 +6 1014.7 974.4
09 21.01 В 2 н/о н/о +9.7 +5.2 74 +8 +8 1014.8 974.7
10 21.01 ЮВ 1 н/о н/о +10.2 +4.9 70 +10 +10 1014.7 974.7
11 21.01 В 2 н/о н/о +9.6 +4.9 72 +8 +8 1014.2 974.1
12 21.01 ЮВ 2 н/о н/о +9.9 +5.0 72 +9 +9 1013.4 973.5
14 21.01 ЮВ 3 н/о н/о +10.2 +5.5 73 +8 +8 1012.7 972.8
13 21.01 ЮВ 3 н/о н/о +10.1 +5.8 75 +8 +8 1012.8 972.9
15 21.01 В 1 н/о н/о +10.0 +5.9 76 +10 +10 1012.4 972.5
16 21.01 В 3 н/о н/о +9.9 +6.0 77 +8 +8 1012.2 972.3
17 21.01 ЮВ 2 н/о н/о +9.8 +5.7 76 +8 +8 1012.3 972.4
18 21.01 ЮВ 2 н/о н/о +8.9 +6.5 85 +8 +8 1012.4 972.3 +10.4 0.2
20 21.01 СВ 1 н/о н/о +8.2 +5.6 84 +8 +8 1012.4 972.2
19 21.01 СВ 1 н/о н/о +8.1 +5.7 85 +7 +7 1012.5 972.3
21 21.01 В 1 н/о н/о +8.7 +6.1 84 +9 +9 1012.3 972.2
22 21.01 С 1 н/о н/о +8.6 +6.0 84 +9 +9 1012.0 971.9
23 21.01 В 1 н/о н/о +8.2 +6.0 86 +8 +8 1011.8 971.7
00 22.01 штиль 0 н/о н/о +8.1 +6.2 88 +7 +7 1011.1 971.0 1
02 22.01 С 1 н/о н/о +8.1 +6.2 88 +7 +7 1009.9 969.8
01 22.01 С 2 н/о н/о +8.1 +6.2 88 +7 +7 1010.7 970.6
03 22.01 штиль 0 н/о н/о +8.2 +5.3 82 +7 +7 1008.9 968.9
04 22.01 С 1 н/о н/о +7.9 +5.5 85 +8 +8 1008.4 968.3
05 22.01 СЗ 1 н/о н/о +8.1 +5.7 85 +7 +7 1007.8 967.8
06 22.01 С 2 н/о н/о +9.0 +4.4 73 +8 +8 1007.0 967.2 +7.7 2 503
08 22.01 СВ 1 н/о н/о +8.7 +6.5 86 +8 +8 1007.8 967.9
07 22.01 штиль 0 н/о н/о +8.7 +4.5 75 +8 +8 1007.3 967.4
09 22.01 С 1 н/о н/о +9.0 +7.3 89 +9 +9 1007.8 967.9
10 22.01 Ю 2 н/о н/о +9.9 +7.3 84 +9 +9 1007.5 967.7

 

Местоположение метеостанции Катандзаро (Италия): широта 38.90 долгота 16.60 высота над уровнем моря 343 м.

В архиве по умолчанию представлена погода в Катандзаро за последнюю неделю. Архивные данные за месяц целиком и за предыдущие месяцы, начиная с января 2011 года, Вы можете получить, выбрав интересующий диапазон дат из раскрывающегося списка и нажав кнопку "Ввод!".


*Определитесь, кто Вы:
робот инопланетянин человек

Внимание! Время в таблицах - всемирное. Для получения местного времени необходимо прибавить поправку, которая равна 1 ч.

Смотрите также архив погоды в соседних городах и на ближайших метеорологических станциях:

Погода в Серральта-ди-сан-Вито (Италия) (22 км)
Погода в Ламеция-Терме (Италия) (30 км)
Погода на Монте Скеро (Италия) (51 км)
Погода в Пунто Алисе (Италия) (74 км)
Погода в Бонифати (Италия) (98 км)
Погода на Капо Стартивенто (Италия) (118 км)
Погода в Мессине (Италия) (120 км)
Погода в Латронико (Италия) (140 км)
Погода на Острове Салина (Италия) (154 км)
Погода на Капо Палинуро (Италия) (168 км)

Пояснения к столбцам:

Ветер - указаны скорость ветра в м/с - средняя за 10 мин, порывы в срок и между сроками (в фигурных скобках) и направление, откуда дует ветер: С - северный, СВ - северо-восточный, В - восточный, ЮВ - юго-восточный, Ю - южный, ЮЗ - юго-западный, З - западный, СЗ - северо-западный.
Видимость - горизонтальная дальность видимости в метрах или километрах. При видимости от 1 до 10 км при отсутствии осадков обычно наблюдается дымка, при ухудшении видимости до 1 км и менее - туман. В сухую погоду видимость может ухудшаться дымом, пылью или мглою.
Явления - указаны атмосферные явления, наблюдавшиеся в срок или в последний час перед сроком; фигурными скобками обозначены явления, наблюдавшиеся между сроками (за 1-3 часа до срока); квадратными скобками обозначены град или гололедные отложения с указанием их диаметра в мм.
Облачность - указаны через наклонную черту общая и нижняя облачность в баллах и высота нижней границы облаков в метрах; квадратными скобками обозначены формы облаков: Ci - перистые, Cs - перисто-слоистые, Cc - перисто-кучевые, Ac - высококучевые, As - высокослоистые, Sc - слоисто-кучевые, Ns - слоисто-дождевые, Cu - кучевые, Cb - кучево-дождевые. Подробнее классификацию облаков см. в Атласе облаков (PDF).
T - Температура воздуха - температура, измеренная на высоте 2 м над землей.
Td - Температура точки росы - температура, при понижении до которой содержащийся в воздухе водяной пар достигнет насыщения.
f - Относительная влажность воздуха - влажноcть воздуха, измеренная на высоте 2 м над землей.
Te - Эффективная температура - температура, которую ощущает одетый по сезону человек в тени. Характеристика душности погоды. При расчете учитывается влияние влажности воздуха и скорости ветра на теплоощущения человека.
Tes - Эффективная температура на солнце - температура, которую ощущает человек, с поправкой на солнечный нагрев. Характеристика знойности погоды. Зависит от высоты солнца над горизонтом, облачности и скорости ветра. Ночью, в пасмурную погоду, а также при ветре 12 м/с и более поправка равна нулю.
P - Атмосферное давление - приведенное к уровню моря атмосферное давление.
Po - Атмосферное давление - измеренное на уровне метеостанции атмосферное давление.
Tmin - Минимальная температура - минимум температуры воздуха на высоте 2 м над землей.
Tmax - Максимальная температура - максимум температуры воздуха на высоте 2 м над землей.
R - Количество осадков - Количество выпавших осадков за период времени, мм. При наведении курсора мыши на число - период времени, за который выпало указанное количество осадков.
R24 - Количество осадков - Количество выпавших осадков за 24 часа, мм.
S - Снежный покров - Высота снежного покрова, см. При наведении курсора мыши на число - состояние снежного покрова и степень покрытия местности в баллах.